Valparaiso, IN

11:09 AM CST on November 19, 2017 (GMT -0600)
Porter County Municipal

Weather History for KVPZ - September, 2013

Change the Weather History Date:

Wednesday, September 25, 2013

  Actual Average Record
Temperature  
Mean Temperature 62 °F 60 °F  
Max Temperature 76 °F 71 °F 91 °F (2017)
Min Temperature 48 °F 49 °F 38 °F (2000)
Degree Days  
Heating Degree Days 3 6  
Month to date heating degree days 77 76  
Since 1 July heating degree days 105 93  
Cooling Degree Days 0 1  
Month to date cooling degree days 116 60  
Year to date cooling degree days 783 696  
Growing Degree Days 10 (Base 50)    
Moisture  
Dew Point 50 °F    
Average Humidity 74    
Maximum Humidity 93    
Minimum Humidity 38    
Precipitation  
Precipitation 0.00 in 0.10 in 0.48 in (2001)
Month to date precipitation 2.42 2.66  
Year to date precipitation 28.10 28.20  
Sea Level Pressure  
Sea Level Pressure 29.96 in    
Wind  
Wind Speed 5 mph (NE)    
Max Wind Speed 10 mph    
Max Gust Speed 15 mph    
Visibility 9 miles    
Events      
T = Trace of Precipitation, MM = Missing Value Source: NWS Daily Summary

Daily Weather History Graph

Daily Weather History Graph

Search for Another Location

Airport or City:

Trip Planner

Search our weather history database for the weather conditions in past years. The results will help you decide how hot, cold, wet, or windy it might be!

Date:

Astronomy

Sep. 25, 2013 Rise Set
Actual Time 6:38 AM CDT 6:39 PM CDT
Civil Twilight 6:11 AM CDT 7:07 PM CDT
Nautical Twilight 5:38 AM CDT 7:39 PM CDT
Astronomical Twilight 5:06 AM CDT 8:12 PM CDT
Moon 10:42 PM CDT (9/25) 12:47 PM CDT (9/25)
Length of Visible Light 12h 55m
Length of Day
12h 00m
Waning Gibbous, 64% of the Moon is Illuminated
Sep 25
Waning Gibbous
Sep 26
Last Quarter
Oct 4
New
Oct 11
First Quarter
Oct 18
Full

Hourly Weather History & Observations

Time (CDT) Temp. Dew Point Humidity Pressure Visibility Wind Dir Wind Speed Gust Speed Precip Events Conditions
12:53 AM 50.0 °F 46.0 °F 86% 29.95 in 10.0 mi ENE 5.8 mph - N/A   Clear
1:53 AM 50.0 °F 46.0 °F 86% 29.95 in 10.0 mi ENE 6.9 mph - N/A   Clear
2:53 AM 50.0 °F 46.0 °F 86% 29.95 in 10.0 mi NE 6.9 mph - N/A   Clear
3:53 AM 48.9 °F 46.0 °F 90% 29.94 in 8.0 mi NE 5.8 mph - N/A   Clear
4:53 AM 48.9 °F 46.0 °F 90% 29.95 in 7.0 mi NE 4.6 mph - N/A   Clear
5:53 AM 48.0 °F 46.0 °F 93% 29.96 in 6.0 mi NE 4.6 mph - N/A   Clear
6:53 AM 48.0 °F 46.0 °F 93% 29.96 in 3.0 mi ENE 5.8 mph - N/A   Clear
7:53 AM 52.0 °F 48.9 °F 89% 29.97 in 4.0 mi ENE 3.5 mph - N/A   Clear
8:53 AM 55.9 °F 50.0 °F 80% 29.98 in 7.0 mi ENE 5.8 mph - N/A   Clear
9:53 AM 64.0 °F 52.0 °F 65% 29.98 in 10.0 mi East 5.8 mph - N/A   Clear
10:53 AM 66.9 °F 50.0 °F 54% 29.98 in 10.0 mi East 6.9 mph - N/A   Clear
11:53 AM 70.0 °F 48.0 °F 46% 29.97 in 10.0 mi East 8.1 mph - N/A   Clear
12:53 PM 72.0 °F 50.0 °F 46% 29.95 in 10.0 mi East 5.8 mph - N/A   Clear
1:53 PM 73.9 °F 48.9 °F 41% 29.93 in 10.0 mi Variable 4.6 mph - N/A   Clear
2:53 PM 73.9 °F 46.9 °F 38% 29.92 in 10.0 mi East 3.5 mph - N/A   Clear
3:53 PM 73.0 °F 54.0 °F 51% 29.92 in 10.0 mi North 8.1 mph - N/A   Clear
4:53 PM 71.1 °F 55.0 °F 57% 29.93 in 10.0 mi North 4.6 mph - N/A   Clear
5:53 PM 66.9 °F 55.0 °F 66% 29.95 in 10.0 mi North 5.8 mph - N/A   Clear
6:53 PM 62.1 °F 54.0 °F 75% 29.96 in 10.0 mi North 3.5 mph - N/A   Clear
7:53 PM 59.0 °F 54.0 °F 83% 29.96 in 10.0 mi NNE 3.5 mph - N/A   Clear
8:53 PM 55.9 °F 53.1 °F 90% 29.97 in 10.0 mi Calm Calm - N/A   Clear
9:53 PM 54.0 °F 51.1 °F 90% 29.97 in 7.0 mi Calm Calm - N/A   Clear
10:53 PM 52.0 °F 50.0 °F 93% 29.98 in 6.0 mi Calm Calm - N/A   Clear
11:53 PM 53.1 °F 50.0 °F 89% 29.98 in 9.0 mi NE 4.6 mph - N/A   Clear